,,,PA_Meas_PMT16A,,PR_Meas_QMR101_102,,RH_Meas_QMH101,,SR_Meas_QMS101,,TA_Meas_QMH101,,GenWind,,GenWind,
date,time,status,PA,status,PR,status,RH,status,SR,status,TA,status,DirAvg,status,SpdAvg,
2010-09-21, 00:00:05,VALID,1000.53,VALID,0,VALID,84.0326,VALID,0,VALID,24.3629,VALID,258,VALID,0.587891,
2010-09-21, 00:01:05,VALID,1000.46,VALID,0,VALID,83.9258,VALID,0,VALID,24.4019,VALID,258,VALID,0.123438,
2010-09-21, 00:02:05,VALID,1000.43,VALID,0,VALID,83.88,VALID,0,VALID,24.3824,VALID,258,VALID,0,
2010-09-21, 00:03:05,VALID,1000.42,VALID,0,VALID,83.9792,VALID,0,VALID,24.3842,VALID,258,VALID,0.0441406,
2010-09-21, 00:04:05,VALID,1000.45,VALID,0,VALID,84.3531,VALID,0,VALID,24.3647,VALID,329,VALID,0.708203,
2010-09-21, 00:05:05,VALID,1000.51,VALID,0,VALID,84.8719,VALID,0,VALID,24.2263,VALID,3,VALID,1.00547,
2010-09-21, 00:06:05,VALID,1000.53,VALID,0,VALID,85.5204,VALID,0,VALID,24.0311,VALID,21,VALID,1.25,
2010-09-21, 00:07:05,VALID,1000.52,VALID,0,VALID,86.5275,VALID,0,VALID,23.8573,VALID,21,VALID,1.25859,
2010-09-21, 00:08:05,VALID,1000.5,VALID,0,VALID,87.2294,VALID,0,VALID,23.7207,VALID,23,VALID,1.13359,
2010-09-21, 00:09:05,VALID,1000.44,VALID,0,VALID,87.2676,VALID,0,VALID,23.6817,VALID,40,VALID,1.24688,
2010-09-21, 00:10:05,VALID,1000.41,VALID,0,VALID,87.8322,VALID,0,VALID,23.703,VALID,54,VALID,1.17422,
2010-09-21, 00:11:05,VALID,1000.4,VALID,0,VALID,88.3052,VALID,0,VALID,23.6817,VALID,45,VALID,1.07852,
2010-09-21, 00:12:05,VALID,1000.39,VALID,0,VALID,88.412,VALID,0,VALID,23.6232,VALID,29,VALID,0.738672,
2010-09-21, 00:13:05,VALID,1000.38,VALID,0,VALID,88.4654,VALID,0,VALID,23.6036,VALID,22,VALID,0.73125,
2010-09-21, 00:14:05,VALID,1000.39,VALID,0,VALID,88.3586,VALID,0,VALID,23.5841,VALID,22,VALID,0.922266,
2010-09-21, 00:15:05,VALID,1000.39,VALID,0,VALID,88.2213,VALID,0,VALID,23.6232,VALID,17,VALID,0.983984,
2010-09-21, 00:16:05,VALID,1000.42,VALID,0,VALID,88.1603,VALID,0,VALID,23.6427,VALID,359,VALID,0.659766,
2010-09-21, 00:17:05,VALID,1000.37,VALID,0,VALID,88.2671,VALID,0,VALID,23.6427,VALID,302,VALID,0.638281,
2010-09-21, 00:18:05,VALID,1000.38,VALID,0,VALID,88.2518,VALID,0,VALID,23.6232,VALID,302,VALID,0.335547,
2010-09-21, 00:19:05,VALID,1000.35,VALID,0,VALID,88.5341,VALID,0,VALID,23.6232,VALID,302,VALID,0.167187,
2010-09-21, 00:20:05,VALID,1000.33,VALID,0,VALID,88.6562,VALID,0,VALID,23.6036,VALID,302,VALID,0.401563,
2010-09-21, 00:21:05,VALID,1000.34,VALID,0,VALID,88.6333,VALID,0,VALID,23.5859,VALID,302,VALID,0.528516,
2010-09-21, 00:22:05,VALID,1000.34,VALID,0,VALID,88.4883,VALID,0,VALID,23.6019,VALID,302,VALID,0.541797,
2010-09-21, 00:23:05,VALID,1000.35,VALID,0,VALID,88.4883,VALID,0.112286,VALID,23.6019,VALID,340,VALID,0.851953,
2010-09-21, 00:24:05,VALID,1000.32,VALID,0,VALID,88.2442,VALID,0,VALID,23.6019,VALID,10,VALID,0.846094,
2010-09-21, 00:25:05,VALID,1000.34,VALID,0,VALID,88.1374,VALID,0,VALID,23.6214,VALID,17,VALID,1.1875,
2010-09-21, 00:26:05,VALID,1000.29,VALID,0,VALID,87.7635,VALID,0,VALID,23.6409,VALID,26,VALID,1.00859,
2010-09-21, 00:27:05,VALID,1000.29,VALID,0,VALID,87.5728,VALID,0,VALID,23.6799,VALID,30,VALID,0.855859,
2010-09-21, 00:28:05,VALID,1000.27,VALID,0,VALID,87.2294,VALID,0,VALID,23.6799,VALID,30,VALID,0.457031,
2010-09-21, 00:29:05,VALID,1000.25,VALID,0,VALID,87.0769,VALID,0,VALID,23.7012,VALID,56,VALID,1.14414,
2010-09-21, 00:30:05,VALID,1000.28,VALID,0,VALID,87.1455,VALID,0,VALID,23.6604,VALID,55,VALID,1.01602,
2010-09-21, 00:31:05,VALID,1000.26,VALID,0,VALID,87.3057,VALID,0,VALID,23.6214,VALID,61,VALID,0.646875,
2010-09-21, 00:32:05,VALID,1000.29,VALID,0,VALID,87.4507,VALID,0,VALID,23.6232,VALID,61,VALID,0.688281,
2010-09-21, 00:33:05,VALID,1000.27,VALID,0,VALID,87.7483,VALID,0,VALID,23.5823,VALID,87,VALID,1.11211,
2010-09-21, 00:34:05,VALID,1000.3,VALID,0,VALID,87.9466,VALID,0,VALID,23.5451,VALID,82,VALID,1.49609,
2010-09-21, 00:35:05,VALID,1000.28,VALID,0,VALID,88.2671,VALID,0.112286,VALID,23.5238,VALID,68,VALID,1.73047,
2010-09-21, 00:36:05,VALID,1000.26,VALID,0,VALID,88.351,VALID,0,VALID,23.5238,VALID,66,VALID,1.40195,
2010-09-21, 00:37:05,VALID,1000.29,VALID,0,VALID,88.557,VALID,0,VALID,23.5061,VALID,98,VALID,1.23867,
2010-09-21, 00:38:05,VALID,1000.25,VALID,0,VALID,88.8851,VALID,0,VALID,23.4848,VALID,102,VALID,1.34453,
2010-09-21, 00:39:05,VALID,1000.29,VALID,0,VALID,89.03,VALID,0,VALID,23.4866,VALID,102,VALID,1.22266,
2010-09-21, 00:40:05,VALID,1000.26,VALID,0,VALID,89.2055,VALID,0,VALID,23.4653,VALID,94,VALID,1.16016,
2010-09-21, 00:41:05,VALID,1000.27,VALID,0,VALID,89.4573,VALID,0,VALID,23.4458,VALID,77,VALID,1.19062,
2010-09-21, 00:42:05,VALID,1000.27,VALID,0,VALID,89.5565,VALID,0,VALID,23.4458,VALID,75,VALID,1.21484,
2010-09-21, 00:43:05,VALID,1000.24,VALID,0,VALID,89.3428,VALID,0,VALID,23.4458,VALID,60,VALID,1.27891,
2010-09-21, 00:44:05,VALID,1000.24,VALID,0,VALID,89.0834,VALID,0,VALID,23.4263,VALID,54,VALID,1.02148,
2010-09-21, 00:45:05,VALID,1000.21,VALID,0,VALID,88.9614,VALID,0,VALID,23.4671,VALID,28,VALID,0.729688,
2010-09-21, 00:46:05,VALID,1000.2,VALID,0,VALID,88.8851,VALID,0,VALID,23.4475,VALID,27,VALID,0.751562,
2010-09-21, 00:47:05,VALID,1000.21,VALID,0,VALID,89.0148,VALID,0,VALID,23.4085,VALID,12,VALID,0.995313,
2010-09-21, 00:48:05,VALID,1000.19,VALID,0,VALID,89.1674,VALID,0,VALID,23.3482,VALID,11,VALID,1.00273,
2010-09-21, 00:49:05,VALID,1000.17,VALID,0,VALID,89.4344,VALID,0,VALID,23.3677,VALID,351,VALID,0.820313,
2010-09-21, 00:50:05,VALID,1000.15,VALID,0,VALID,89.7549,VALID,0.112286,VALID,23.3677,VALID,347,VALID,0.833984,
2010-09-21, 00:51:05,VALID,1000.17,VALID,0,VALID,89.8235,VALID,0,VALID,23.389,VALID,341,VALID,0.821875,
2010-09-21, 00:52:05,VALID,1000.11,VALID,0,VALID,89.7854,VALID,0,VALID,23.4067,VALID,338,VALID,0.870313,
2010-09-21, 00:53:05,VALID,1000.08,VALID,0,VALID,89.6633,VALID,0.112286,VALID,23.4263,VALID,338,VALID,0.657422,
2010-09-21, 00:54:05,VALID,1000.05,VALID,0,VALID,89.4573,VALID,0,VALID,23.4263,VALID,334,VALID,0.85625,
2010-09-21, 00:55:05,VALID,1000.02,VALID,0,VALID,89.3657,VALID,0,VALID,23.4475,VALID,327,VALID,0.717188,
2010-09-21, 00:56:05,VALID,1000.01,VALID,0,VALID,89.3657,VALID,0,VALID,23.4067,VALID,328,VALID,0.75625,
2010-09-21, 00:57:05,VALID,999.971,VALID,0,VALID,89.4573,VALID,0,VALID,23.4067,VALID,328,VALID,0.798437,
2010-09-21, 00:58:05,VALID,999.922,VALID,0,VALID,89.3352,VALID,0,VALID,23.3872,VALID,322,VALID,0.836328,
2010-09-21, 00:59:05,VALID,999.927,VALID,0,VALID,89.2818,VALID,0,VALID,23.389,VALID,306,VALID,0.749219,
2010-09-21, 01:00:05,VALID,999.902,VALID,0,VALID,89.2742,VALID,0,VALID,23.3677,VALID,292,VALID,0.889844,
2010-09-21, 01:01:05,VALID,999.885,VALID,0,VALID,89.1674,VALID,0,VALID,23.3677,VALID,301,VALID,0.882031,
2010-09-21, 01:02:05,VALID,999.857,VALID,0,VALID,89.2284,VALID,0,VALID,23.3872,VALID,303,VALID,0.745313,
2010-09-21, 01:03:05,VALID,999.848,VALID,0,VALID,89.0682,VALID,0.112286,VALID,23.4067,VALID,319,VALID,0.896875,
2010-09-21, 01:04:05,VALID,999.826,VALID,0,VALID,89.0606,VALID,0,VALID,23.4263,VALID,330,VALID,0.3625,
2010-09-21, 01:05:05,VALID,999.847,VALID,0,VALID,89.1216,VALID,0,VALID,23.4458,VALID,336,VALID,0.763672,
2010-09-21, 01:06:05,VALID,999.861,VALID,0,VALID,89.0606,VALID,0.112286,VALID,23.4458,VALID,16,VALID,1.12852,
2010-09-21, 01:07:05,VALID,999.838,VALID,0,VALID,89.0758,VALID,0,VALID,23.4298,VALID,32,VALID,1.62031,
2010-09-21, 01:08:05,VALID,999.832,VALID,0,VALID,89.1597,VALID,0,VALID,23.4085,VALID,29,VALID,0.908594,
2010-09-21, 01:09:05,VALID,999.809,VALID,0,VALID,89.1216,VALID,0,VALID,23.389,VALID,4,VALID,0.632422,
2010-09-21, 01:10:05,VALID,999.761,VALID,0,VALID,89.0529,VALID,0,VALID,23.389,VALID,4,VALID,0.427734,
2010-09-21, 01:11:05,VALID,999.761,VALID,0,VALID,89.0834,VALID,0,VALID,23.4085,VALID,4,VALID,0.295312,
2010-09-21, 01:12:05,VALID,999.76,VALID,0,VALID,88.9461,VALID,0,VALID,23.4475,VALID,4,VALID,0.0570313,
2010-09-21, 01:13:05,VALID,999.712,VALID,0,VALID,88.8164,VALID,0,VALID,23.4866,VALID,4,VALID,0.0867188,
2010-09-21, 01:14:05,VALID,999.748,VALID,0,VALID,88.8851,VALID,0,VALID,23.5061,VALID,88,VALID,0.699219,
2010-09-21, 01:15:05,VALID,999.728,VALID,0,VALID,88.5417,VALID,0,VALID,23.5274,VALID,88,VALID,0.203125,
2010-09-21, 01:16:05,VALID,999.704,VALID,0,VALID,88.4197,VALID,0,VALID,23.5061,VALID,88,VALID,0.348437,
2010-09-21, 01:17:05,VALID,999.672,VALID,0,VALID,88.412,VALID,0,VALID,23.5451,VALID,88,VALID,0.557813,
2010-09-21, 01:18:05,VALID,999.683,VALID,0,VALID,88.6486,VALID,0,VALID,23.6054,VALID,83,VALID,0.667969,
2010-09-21, 01:19:05,VALID,999.615,VALID,0,VALID,88.4502,VALID,0,VALID,23.625,VALID,22,VALID,1.07969,
2010-09-21, 01:20:05,VALID,999.621,VALID,0,VALID,88.763,VALID,0,VALID,23.6232,VALID,16,VALID,1.46055,
2010-09-21, 01:21:05,VALID,999.622,VALID,0,VALID,88.9614,VALID,0,VALID,23.6232,VALID,15,VALID,1.44727,
2010-09-21, 01:22:05,VALID,999.598,VALID,0,VALID,89.0377,VALID,0,VALID,23.6036,VALID,24,VALID,1.20078,
2010-09-21, 01:23:05,VALID,999.619,VALID,0,VALID,88.9614,VALID,0,VALID,23.5841,VALID,35,VALID,0.7875,
2010-09-21, 01:24:05,VALID,999.629,VALID,0,VALID,88.9995,VALID,0,VALID,23.5841,VALID,36,VALID,0.431641,
2010-09-21, 01:25:05,VALID,999.611,VALID,0,VALID,88.9843,VALID,0,VALID,23.5841,VALID,36,VALID,0,
2010-09-21, 01:26:05,VALID,999.583,VALID,0,VALID,89.0148,VALID,0,VALID,23.5841,VALID,36,VALID,0,
2010-09-21, 01:27:05,VALID,999.594,VALID,0,VALID,88.9919,VALID,0,VALID,23.5841,VALID,36,VALID,0,
2010-09-21, 01:28:05,VALID,999.585,VALID,0,VALID,88.9461,VALID,0,VALID,23.5646,VALID,36,VALID,0,
2010-09-21, 01:29:05,VALID,999.59,VALID,0,VALID,89.0758,VALID,0,VALID,23.5841,VALID,36,VALID,0.378516,
2010-09-21, 01:30:05,VALID,999.58,VALID,0,VALID,88.9537,VALID,0,VALID,23.6054,VALID,36,VALID,0.701563,
2010-09-21, 01:31:05,VALID,999.591,VALID,0,VALID,88.7401,VALID,0,VALID,23.5841,VALID,53,VALID,1.04023,
2010-09-21, 01:32:05,VALID,999.572,VALID,0,VALID,88.6409,VALID,0,VALID,23.6214,VALID,53,VALID,1.08555,
2010-09-21, 01:33:05,VALID,999.533,VALID,0,VALID,88.5189,VALID,0,VALID,23.6835,VALID,48,VALID,1.10508,
2010-09-21, 01:34:05,VALID,999.517,VALID,0,VALID,88.2976,VALID,0,VALID,23.7012,VALID,34,VALID,1.11875,
2010-09-21, 01:35:05,VALID,999.489,VALID,0,VALID,88.2518,VALID,0,VALID,23.7207,VALID,26,VALID,1.15625,
2010-09-21, 01:36:05,VALID,999.491,VALID,0,VALID,88.351,VALID,0,VALID,23.7012,VALID,24,VALID,1.3293,
2010-09-21, 01:37:05,VALID,999.474,VALID,0,VALID,88.5265,VALID,0,VALID,23.6817,VALID,27,VALID,1.7918,
2010-09-21, 01:38:05,VALID,999.461,VALID,0,VALID,88.6333,VALID,0,VALID,23.6622,VALID,29,VALID,1.61172,
2010-09-21, 01:39:05,VALID,999.455,VALID,0,VALID,88.618,VALID,0.112286,VALID,23.6604,VALID,27,VALID,1.59727,
2010-09-21, 01:40:05,VALID,999.412,VALID,0,VALID,88.4883,VALID,0,VALID,23.6799,VALID,28,VALID,1.31797,
2010-09-21, 01:41:05,VALID,999.402,VALID,0,VALID,88.4578,VALID,0,VALID,23.6994,VALID,9,VALID,1.10625,
2010-09-21, 01:42:05,VALID,999.367,VALID,0,VALID,88.3205,VALID,0,VALID,23.6799,VALID,9,VALID,1.09766,
2010-09-21, 01:43:05,VALID,999.318,VALID,0,VALID,88.3281,VALID,0,VALID,23.6799,VALID,11,VALID,1.00156,
2010-09-21, 01:44:05,VALID,999.317,VALID,0,VALID,88.3357,VALID,0,VALID,23.6604,VALID,12,VALID,0.902344,
2010-09-21, 01:45:05,VALID,999.306,VALID,0,VALID,88.5341,VALID,0,VALID,23.6409,VALID,11,VALID,0.519922,
2010-09-21, 01:46:05,VALID,999.275,VALID,0,VALID,88.7325,VALID,0,VALID,23.6214,VALID,11,VALID,0.2875,
2010-09-21, 01:47:05,VALID,999.277,VALID,0,VALID,88.9385,VALID,0,VALID,23.6214,VALID,11,VALID,0.248828,
2010-09-21, 01:48:05,VALID,999.282,VALID,0,VALID,88.8927,VALID,0,VALID,23.5823,VALID,11,VALID,0.423438,
2010-09-21, 01:49:05,VALID,999.293,VALID,0,VALID,88.9156,VALID,0,VALID,23.5628,VALID,11,VALID,0.584766,
2010-09-21, 01:50:05,VALID,999.273,VALID,0,VALID,89.1292,VALID,0.112286,VALID,23.5451,VALID,44,VALID,0.860937,
2010-09-21, 01:51:05,VALID,999.29,VALID,0,VALID,89.3352,VALID,0,VALID,23.5256,VALID,55,VALID,0.992969,
2010-09-21, 01:52:05,VALID,999.261,VALID,0,VALID,89.4573,VALID,0,VALID,23.4848,VALID,45,VALID,1.24492,
2010-09-21, 01:53:05,VALID,999.265,VALID,0,VALID,89.442,VALID,0,VALID,23.5061,VALID,33,VALID,1.19453,
2010-09-21, 01:54:05,VALID,999.244,VALID,0,VALID,89.5336,VALID,0.112286,VALID,23.4848,VALID,28,VALID,1.1543,
2010-09-21, 01:55:05,VALID,999.245,VALID,0,VALID,89.6328,VALID,0,VALID,23.4653,VALID,24,VALID,1.04844,
2010-09-21, 01:56:05,VALID,999.219,VALID,0,VALID,89.7243,VALID,0,VALID,23.4653,VALID,24,VALID,0.814062,
2010-09-21, 01:57:05,VALID,999.18,VALID,0,VALID,89.7777,VALID,0,VALID,23.4458,VALID,17,VALID,0.628125,
2010-09-21, 01:58:05,VALID,999.208,VALID,0,VALID,89.8311,VALID,0,VALID,23.4263,VALID,17,VALID,0.79375,
2010-09-21, 01:59:05,VALID,999.22,VALID,0,VALID,89.8617,VALID,0,VALID,23.4475,VALID,17,VALID,0.791406,
2010-09-21, 02:00:04,VALID,999.232,VALID,0,VALID,89.938,VALID,0,VALID,23.4458,VALID,17,VALID,0.7625,
2010-09-21, 02:01:04,VALID,999.261,VALID,0,VALID,90.0295,VALID,0,VALID,23.4458,VALID,44,VALID,0.471484,
2010-09-21, 02:02:04,VALID,999.271,VALID,0,VALID,90.1592,VALID,0,VALID,23.4866,VALID,48,VALID,0.474219,
2010-09-21, 02:03:04,VALID,999.267,VALID,0,VALID,90.35,VALID,0,VALID,23.4653,VALID,54,VALID,0.54375,
2010-09-21, 02:04:04,VALID,999.271,VALID,0,VALID,90.4339,VALID,0,VALID,23.4848,VALID,96,VALID,0.673828,
2010-09-21, 02:05:04,VALID,999.292,VALID,0,VALID,90.6017,VALID,0,VALID,23.5451,VALID,115,VALID,1.24102,
2010-09-21, 02:06:04,VALID,999.279,VALID,0,VALID,90.411,VALID,0,VALID,23.5451,VALID,150,VALID,1.22461,
2010-09-21, 02:07:04,VALID,999.274,VALID,0,VALID,90.1668,VALID,0,VALID,23.5433,VALID,173,VALID,1.14023,
2010-09-21, 02:08:04,VALID,999.271,VALID,0,VALID,89.9303,VALID,0,VALID,23.6019,VALID,173,VALID,1.61797,
2010-09-21, 02:09:04,VALID,999.303,VALID,0,VALID,89.5565,VALID,0,VALID,23.6994,VALID,169,VALID,1.35898,
2010-09-21, 02:10:04,VALID,999.296,VALID,0,VALID,89.1903,VALID,0,VALID,23.7579,VALID,168,VALID,1.15391,
2010-09-21, 02:11:04,VALID,999.332,VALID,0,VALID,88.9537,VALID,0,VALID,23.8165,VALID,163,VALID,1.11602,
2010-09-21, 02:12:04,VALID,999.338,VALID,0,VALID,88.7172,VALID,0.112286,VALID,23.8555,VALID,146,VALID,0.937109,
2010-09-21, 02:13:04,VALID,999.356,VALID,0,VALID,88.702,VALID,0,VALID,23.875,VALID,146,VALID,1.07969,
2010-09-21, 02:14:04,VALID,999.355,VALID,0,VALID,88.8164,VALID,0,VALID,23.8945,VALID,146,VALID,0.872656,
2010-09-21, 02:15:04,VALID,999.377,VALID,0,VALID,88.9003,VALID,0,VALID,23.914,VALID,146,VALID,0.817578,
2010-09-21, 02:16:04,VALID,999.379,VALID,0,VALID,88.8546,VALID,0,VALID,23.9159,VALID,149,VALID,0.675391,
2010-09-21, 02:17:04,VALID,999.361,VALID,0,VALID,88.7783,VALID,0.112286,VALID,23.914,VALID,149,VALID,0.434375,
2010-09-21, 02:18:04,VALID,999.346,VALID,0,VALID,88.6409,VALID,0.112286,VALID,23.914,VALID,149,VALID,0.316016,
2010-09-21, 02:19:04,VALID,999.352,VALID,0,VALID,88.5036,VALID,0,VALID,23.914,VALID,149,VALID,0.217578,
2010-09-21, 02:20:04,VALID,999.317,VALID,0,VALID,88.4044,VALID,0,VALID,23.914,VALID,149,VALID,0.242578,
2010-09-21, 02:21:04,VALID,999.287,VALID,0,VALID,88.3205,VALID,0,VALID,23.914,VALID,149,VALID,0.226953,
2010-09-21, 02:22:04,VALID,999.254,VALID,0,VALID,88.3586,VALID,0,VALID,23.8963,VALID,149,VALID,0.0769531,
2010-09-21, 02:23:04,VALID,999.265,VALID,0,VALID,88.3205,VALID,0,VALID,23.8963,VALID,149,VALID,0.128125,
2010-09-21, 02:24:04,VALID,999.29,VALID,0,VALID,88.29,VALID,0,VALID,23.9354,VALID,149,VALID,0.119922,
2010-09-21, 02:25:04,VALID,999.304,VALID,0,VALID,88.3892,VALID,0,VALID,23.9159,VALID,149,VALID,0,
2010-09-21, 02:26:04,VALID,999.28,VALID,0,VALID,88.3815,VALID,0,VALID,23.9159,VALID,149,VALID,0,
2010-09-21, 02:27:04,VALID,999.259,VALID,0,VALID,88.412,VALID,0,VALID,23.8963,VALID,149,VALID,0,
2010-09-21, 02:28:04,VALID,999.251,VALID,0,VALID,88.3129,VALID,0,VALID,23.8768,VALID,149,VALID,0,
2010-09-21, 02:29:04,VALID,999.247,VALID,0,VALID,88.2442,VALID,0,VALID,23.8573,VALID,149,VALID,0,
2010-09-21, 02:30:04,VALID,999.194,VALID,0,VALID,88.351,VALID,0,VALID,23.8573,VALID,149,VALID,0.291797,
2010-09-21, 02:31:04,VALID,999.218,VALID,0,VALID,88.1984,VALID,0,VALID,23.8573,VALID,140,VALID,0.575781,
2010-09-21, 02:32:04,VALID,999.218,VALID,0,VALID,87.5651,VALID,0,VALID,23.8982,VALID,96,VALID,0.913672,
2010-09-21, 02:33:04,VALID,999.204,VALID,0,VALID,87.0387,VALID,0,VALID,23.9354,VALID,83,VALID,1.08164,
2010-09-21, 02:34:04,VALID,999.187,VALID,0,VALID,86.6572,VALID,0,VALID,23.9939,VALID,71,VALID,1.06953,
2010-09-21, 02:35:04,VALID,999.187,VALID,0,VALID,86.3063,VALID,0,VALID,24.0525,VALID,61,VALID,0.987109,
2010-09-21, 02:36:04,VALID,999.172,VALID,0,VALID,86.3368,VALID,0,VALID,24.0915,VALID,56,VALID,0.933984,
2010-09-21, 02:37:04,VALID,999.171,VALID,0,VALID,86.3673,VALID,0,VALID,24.0915,VALID,49,VALID,1.02891,
2010-09-21, 02:38:04,VALID,999.173,VALID,0,VALID,86.4131,VALID,0,VALID,24.0915,VALID,42,VALID,0.875781,
2010-09-21, 02:39:04,VALID,999.195,VALID,0,VALID,86.9319,VALID,0,VALID,23.9921,VALID,37,VALID,0.8125,
2010-09-21, 02:40:04,VALID,999.165,VALID,0,VALID,87.3363,VALID,0,VALID,23.9159,VALID,37,VALID,0.656641,
2010-09-21, 02:41:04,VALID,999.175,VALID,0,VALID,88,VALID,0,VALID,23.836,VALID,48,VALID,0.639844,
2010-09-21, 02:42:04,VALID,999.159,VALID,0,VALID,88.4426,VALID,0,VALID,23.797,VALID,70,VALID,0.634375,
2010-09-21, 02:43:04,VALID,999.171,VALID,0,VALID,88.7401,VALID,0,VALID,23.7189,VALID,74,VALID,0.673047,
2010-09-21, 02:44:04,VALID,999.156,VALID,0,VALID,89.0911,VALID,0,VALID,23.7012,VALID,78,VALID,0.757031,
2010-09-21, 02:45:04,VALID,999.155,VALID,0,VALID,89.5794,VALID,0,VALID,23.6817,VALID,86,VALID,0.776563,
2010-09-21, 02:46:04,VALID,999.136,VALID,0,VALID,89.6175,VALID,0,VALID,23.6817,VALID,99,VALID,0.735156,
2010-09-21, 02:47:04,VALID,999.139,VALID,0,VALID,89.6251,VALID,0,VALID,23.6622,VALID,99,VALID,0.529297,
2010-09-21, 02:48:04,VALID,999.134,VALID,0,VALID,89.6328,VALID,0,VALID,23.6409,VALID,99,VALID,0.473828,
2010-09-21, 02:49:04,VALID,999.11,VALID,0,VALID,89.7243,VALID,0,VALID,23.6214,VALID,99,VALID,0.753516,
2010-09-21, 02:50:04,VALID,999.138,VALID,0,VALID,89.7701,VALID,0,VALID,23.6232,VALID,105,VALID,0.867188,
2010-09-21, 02:51:04,VALID,999.146,VALID,0,VALID,89.9456,VALID,0,VALID,23.6232,VALID,107,VALID,0.916016,
2010-09-21, 02:52:04,VALID,999.129,VALID,0,VALID,89.9532,VALID,0,VALID,23.5823,VALID,107,VALID,0.780078,
2010-09-21, 02:53:04,VALID,999.165,VALID,0,VALID,89.999,VALID,0,VALID,23.5628,VALID,107,VALID,0.671484,
2010-09-21, 02:54:04,VALID,999.159,VALID,0,VALID,90.144,VALID,0,VALID,23.5628,VALID,107,VALID,0.676172,
2010-09-21, 02:55:04,VALID,999.185,VALID,0,VALID,90.2431,VALID,0,VALID,23.5238,VALID,107,VALID,0.79375,
2010-09-21, 02:56:04,VALID,999.182,VALID,0,VALID,90.2966,VALID,0,VALID,23.5451,VALID,107,VALID,0.839063,
2010-09-21, 02:57:04,VALID,999.2,VALID,0,VALID,90.2508,VALID,0,VALID,23.5043,VALID,107,VALID,0.775,
2010-09-21, 02:58:04,VALID,999.204,VALID,0,VALID,90.3728,VALID,0,VALID,23.5238,VALID,107,VALID,0.553906,
2010-09-21, 02:59:04,VALID,999.187,VALID,0,VALID,90.266,VALID,0,VALID,23.5043,VALID,107,VALID,0.542578,
2010-09-21, 03:00:04,VALID,999.217,VALID,0,VALID,90.2584,VALID,0,VALID,23.5043,VALID,107,VALID,0.534766,
2010-09-21, 03:01:04,VALID,999.213,VALID,0,VALID,90.1821,VALID,0,VALID,23.5061,VALID,112,VALID,0.688672,
2010-09-21, 03:02:04,VALID,999.206,VALID,0,VALID,90.0524,VALID,0,VALID,23.4866,VALID,125,VALID,0.947266,
2010-09-21, 03:03:04,VALID,999.225,VALID,0,VALID,89.7091,VALID,0,VALID,23.4848,VALID,159,VALID,1.05391,
2010-09-21, 03:04:04,VALID,999.237,VALID,0,VALID,90.0066,VALID,0,VALID,23.5061,VALID,159,VALID,0.953516,
2010-09-21, 03:05:04,VALID,999.262,VALID,0,VALID,89.9685,VALID,0,VALID,23.5043,VALID,159,VALID,0.845312,
2010-09-21, 03:06:04,VALID,999.308,VALID,0,VALID,89.8769,VALID,0,VALID,23.5043,VALID,159,VALID,0.714063,
2010-09-21, 03:07:04,VALID,999.32,VALID,0,VALID,89.8235,VALID,0,VALID,23.5256,VALID,159,VALID,0.982422,
2010-09-21, 03:08:04,VALID,999.305,VALID,0,VALID,89.9456,VALID,0,VALID,23.5451,VALID,159,VALID,0.895312,
2010-09-21, 03:09:04,VALID,999.284,VALID,0,VALID,90.1134,VALID,0,VALID,23.5646,VALID,159,VALID,0.535156,
2010-09-21, 03:10:04,VALID,999.304,VALID,0,VALID,90.1211,VALID,0,VALID,23.5628,VALID,174,VALID,0.819922,
2010-09-21, 03:11:04,VALID,999.253,VALID,0,VALID,90.1592,VALID,0,VALID,23.5823,VALID,174,VALID,0.711328,
2010-09-21, 03:12:04,VALID,999.252,VALID,0,VALID,90.1134,VALID,0,VALID,23.6232,VALID,171,VALID,0.525391,
2010-09-21, 03:13:04,VALID,999.234,VALID,0,VALID,89.8693,VALID,0.112286,VALID,23.5823,VALID,171,VALID,0.246094,
2010-09-21, 03:14:04,VALID,999.23,VALID,0,VALID,89.9685,VALID,0,VALID,23.5823,VALID,171,VALID,0.235156,
2010-09-21, 03:15:04,VALID,999.247,VALID,0,VALID,89.9837,VALID,0,VALID,23.5823,VALID,171,VALID,0.247656,
2010-09-21, 03:16:04,VALID,999.228,VALID,0,VALID,89.9609,VALID,0,VALID,23.5823,VALID,171,VALID,0.188672,
2010-09-21, 03:17:04,VALID,999.242,VALID,0,VALID,89.9303,VALID,0,VALID,23.5823,VALID,171,VALID,0.261719,
2010-09-21, 03:18:04,VALID,999.251,VALID,0,VALID,89.938,VALID,0,VALID,23.5841,VALID,171,VALID,0.296094,
2010-09-21, 03:19:04,VALID,999.267,VALID,0,VALID,90.0448,VALID,0,VALID,23.5841,VALID,171,VALID,0.476563,
2010-09-21, 03:20:04,VALID,999.266,VALID,0,VALID,90.0295,VALID,0,VALID,23.5823,VALID,171,VALID,0.49375,
2010-09-21, 03:21:04,VALID,999.269,VALID,0,VALID,89.8464,VALID,0,VALID,23.6232,VALID,171,VALID,0.490234,
2010-09-21, 03:22:04,VALID,999.27,VALID,0,VALID,89.4802,VALID,0,VALID,23.6036,VALID,171,VALID,0.415234,
2010-09-21, 03:23:04,VALID,999.263,VALID,0,VALID,89.5794,VALID,0,VALID,23.5823,VALID,171,VALID,0.291797,
2010-09-21, 03:24:04,VALID,999.25,VALID,0,VALID,89.4802,VALID,0,VALID,23.5823,VALID,171,VALID,0.252734,
2010-09-21, 03:25:04,VALID,999.291,VALID,0,VALID,89.4954,VALID,0,VALID,23.5841,VALID,171,VALID,0.216016,
2010-09-21, 03:26:04,VALID,999.225,VALID,0,VALID,89.5031,VALID,0,VALID,23.5238,VALID,171,VALID,0.202344,
2010-09-21, 03:27:04,VALID,999.214,VALID,0,VALID,89.5107,VALID,0,VALID,23.4848,VALID,171,VALID,0,
2010-09-21, 03:28:04,VALID,999.253,VALID,0,VALID,89.7014,VALID,0,VALID,23.4866,VALID,171,VALID,0,
2010-09-21, 03:29:04,VALID,999.232,VALID,0,VALID,89.8617,VALID,0,VALID,23.4475,VALID,171,VALID,0,
2010-09-21, 03:30:04,VALID,999.249,VALID,0,VALID,89.999,VALID,0,VALID,23.4067,VALID,171,VALID,0,
2010-09-21, 03:31:04,VALID,999.237,VALID,0,VALID,90.0906,VALID,0,VALID,23.3677,VALID,171,VALID,0,
2010-09-21, 03:32:04,VALID,999.255,VALID,0,VALID,90.06,VALID,0,VALID,23.3287,VALID,171,VALID,0,
2010-09-21, 03:33:04,VALID,999.239,VALID,0,VALID,90.1134,VALID,0,VALID,23.3092,VALID,78,VALID,0.475,
2010-09-21, 03:34:04,VALID,999.254,VALID,0,VALID,90.2355,VALID,0,VALID,23.2915,VALID,78,VALID,0.611328,
2010-09-21, 03:35:04,VALID,999.228,VALID,0,VALID,90.3271,VALID,0,VALID,23.2312,VALID,43,VALID,0.6875,
2010-09-21, 03:36:04,VALID,999.222,VALID,0,VALID,90.3652,VALID,0,VALID,23.1921,VALID,34,VALID,0.669922,
2010-09-21, 03:37:04,VALID,999.194,VALID,0,VALID,90.4263,VALID,0.112286,VALID,23.1531,VALID,34,VALID,0.61875,
2010-09-21, 03:38:04,VALID,999.2,VALID,0,VALID,90.4644,VALID,0,VALID,23.1141,VALID,34,VALID,0.729688,
2010-09-21, 03:39:04,VALID,999.181,VALID,0,VALID,90.556,VALID,0,VALID,23.0751,VALID,36,VALID,0.748438,
2010-09-21, 03:40:04,VALID,999.164,VALID,0,VALID,90.6475,VALID,0,VALID,23.0556,VALID,38,VALID,0.762109,
2010-09-21, 03:41:04,VALID,999.177,VALID,0,VALID,90.6551,VALID,0.112286,VALID,23.0166,VALID,38,VALID,0.533984,
2010-09-21, 03:42:04,VALID,999.176,VALID,0,VALID,90.7772,VALID,0,VALID,22.9581,VALID,33,VALID,0.516406,
2010-09-21, 03:43:04,VALID,999.212,VALID,0,VALID,90.9756,VALID,0.112286,VALID,22.9385,VALID,33,VALID,0.211328,
2010-09-21, 03:44:04,VALID,999.216,VALID,0,VALID,91.2503,VALID,0.112286,VALID,22.9385,VALID,33,VALID,0.21875,
2010-09-21, 03:45:04,VALID,999.197,VALID,0,VALID,91.502,VALID,0,VALID,22.9581,VALID,33,VALID,0.239844,
2010-09-21, 03:46:04,VALID,999.246,VALID,0,VALID,91.6699,VALID,0,VALID,22.9776,VALID,33,VALID,0,